x

South Uist Range (03023) Weather Station

7:00 - Sun 11th Dec 2016 All times are GMT.

  • Wind
    19mph, 31mph gusts
  • Luft Temp 50°f
  • Sea Pressure 1014mb
  • South Uist Range
  • South Uist Range

More Historic Weather Station data

Upgrade to MSW Pro to gain access to the past 30 days of data for over 8000 Wavebouys and Weather Stations around the globe.

Join Pro

Comparision Forecast

View Surf forecast
   
So 12/11 7:00 19 31 mph 1014mb 50f
6:00 22 32 mph 1014mb 50f
5:00 23 34 mph 1014mb 50f
4:00 24 33 mph 1013mb 50f
3:00 24 32 mph 1013mb 49f
2:00 26 34 mph 1013mb 48f
1:00 28 39 mph 1013mb 48f
12:00 26 38 mph 1012mb 49f
Sa 12/10 11:00 28 38 mph 1011mb 49f
10:00 25 36 mph 1011mb 49f
9:00 26 38 mph 1011mb 49f
8:00 24 36 mph 1010mb 49f
7:00 22 39 mph 1010mb 48f
6:00 28 37 mph 1010mb 49f
5:00 28 39 mph 1009mb 49f
4:00 26 41 mph 1009mb 48f
3:00 25 34 mph 1009mb 49f
2:00 26 36 mph 1009mb 50f
1:00 26 36 mph 1009mb 49f
12:00 26 38 mph 1009mb 50f
11:00 29 44 mph 1009mb 49f
10:00 29 39 mph 1009mb 49f
9:00 28 43 mph 1008mb 49f
8:00 26 41 mph 1008mb 50f
7:00 28 43 mph 1007mb 50f
6:00 31 45 mph 1007mb 48f
5:00 33 47 mph 1006mb 51f
4:00 31 46 mph 1006mb 51f
3:00 30 43 mph 1006mb 51f
2:00 30 47 mph 1006mb 51f
1:00 32 51 mph 1006mb 50f
12:00 28 45 mph 1006mb 50f
Fr 12/09 11:00 30 43 mph 1006mb 51f
10:00 32 47 mph 1005mb 52f
9:00 33 43 mph 1005mb 52f
8:00 33 44 mph 1005mb 52f
7:00 31 45 mph 1005mb 52f
6:00 33 43 mph 1005mb 52f
5:00 31 47 mph 1005mb 52f
4:00 31 41 mph 1005mb 53f
3:00 32 45 mph 1005mb 53f
2:00 32 46 mph 1006mb 54f
1:00 33 47 mph 1006mb 54f
12:00 32 46 mph 1006mb 54f
11:00 32 41 mph 1007mb 54f
10:00 28 38 mph 1006mb 54f
9:00 28 36 mph 1006mb 54f
8:00 28 34 mph 1006mb 53f
7:00 26 45 mph 1006mb 53f
6:00 30 43 mph 1006mb 53f
5:00 29 40 mph 1007mb 53f
4:00 29 41 mph 1008mb 52f
3:00 28 39 mph 1009mb 51f
2:00 18 30 mph 1011mb 50f
1:00 17 36 mph 1012mb 49f
12:00 17
mph
1014mb 49f
Do 12/08 11:00 14
mph
1014mb 49f
10:00 18
mph
1015mb 51f
9:00 16
mph
1015mb 50f
8:00 16
mph
1016mb 50f
7:00 17
mph
1016mb 51f
6:00 15
mph
1016mb 50f
5:00 18
mph
1016mb 51f
4:00 16
mph
1015mb 51f
3:00 17
mph
1015mb 51f
2:00 15
mph
1015mb 51f
1:00 17
mph
1014mb 51f
12:00 17
mph
1014mb 51f
11:00 19
mph
1014mb 51f
10:00 22
mph
1013mb 51f
9:00 21 30 mph 1012mb 51f
8:00 22
mph
1012mb 51f
7:00 22 29 mph 1012mb 52f
6:00 23 30 mph 1012mb 52f
5:00 21 30 mph 1011mb 51f
4:00 25 32 mph 1011mb 52f
3:00 26 34 mph 1011mb 52f
2:00 22 34 mph 1010mb 52f
1:00 23 32 mph 1009mb 52f
12:00 25 36 mph 1009mb 52f
Mi 12/07 11:00 28 44 mph 1009mb 53f
10:00 32 41 mph 1008mb 53f
9:00 29 37 mph 1007mb 53f
8:00 28 38 mph 1006mb 53f
7:00 26 38 mph 1005mb 53f
6:00 28 37 mph 1004mb 53f
5:00 26 45 mph 1003mb 53f
4:00 33 49 mph 1002mb 53f
3:00 37 53 mph 1001mb 54f
2:00 38 54 mph 1001mb 54f
1:00 40 54 mph 1001mb 55f
12:00 37 48 mph 1001mb 55f
11:00 33 45 mph 1001mb 55f
10:00 32 45 mph 1002mb 55f
9:00 32 43 mph 1003mb 54f